Regional Weather Roundup
Issued by NWS

Home | Current Version | Previous Version | Graphics & Text | Print | Product List | Glossary On
Versions: 1 2 3 4 5 6 7 8 9 10 11 12 13 14 15 16 17 18 19 20 21 22 23 24 25 26 27 28 29 30 31 32 33 34 35 36 37 38 39 40 41 42 43 44 45 46 47 48 49 50
000
ASUS43 KFSD 051010
RWRSD

WEATHER ROUNDUP FOR SOUTH DAKOTA
NATIONAL WEATHER SERVICE SIOUX FALLS SD
500 AM CDT WED AUG 05 2015

NOTE: "FAIR" INDICATES FEW OR NO CLOUDS BELOW 12,000 FEET WITH NO
SIGNIFICANT WEATHER AND/OR OBSTRUCTIONS TO VISIBILITY.


SDZ001>005-009-010-012>017-051100-
NORTHWEST AND NORTH CENTRAL SOUTH DAKOTA

CITY           SKY/WX    TMP DP  RH WIND       PRES   REMARKS
BUFFALO          N/A     60  59  96 W6        29.91F
FAITH            N/A     65  61  87 SE14      29.95F
MOBRIDGE       PTCLDY    68  65  90 SE10      29.96F
$$

SDZ012>016-024>037-041>051-057-063-072>074-051100-
SOUTHWEST AND SOUTH CENTRAL SOUTH DAKOTA

CITY           SKY/WX    TMP DP  RH WIND       PRES   REMARKS
RAPID CTY ARPT PTCLDY    63  60  90 SE3       29.99S
PIERRE         MOCLDY    65  63  93 E8        29.97F
CUSTER         CLEAR     54  50  86 W3        30.12F
ELLSWORTH AFB  PTCLDY    65  60  82 S2        29.98F
PHILIP         MOCLDY    69  64  84 SE6       29.96F
PINE RIDGE     PTCLDY    63  59  87 SW7       30.02S
SPEARFISH      FAIR      55  54  94 SW3       30.03F
WINNER         FAIR      65  62  90 SE9       29.99F
$$

SDZ004>011-016>023-039-040-051100-
NORTHEAST SOUTH DAKOTA

CITY           SKY/WX    TMP DP  RH WIND       PRES   REMARKS
ABERDEEN       PTCLDY    59  55  87 SE3       30.01S
WATERTOWN      PTCLDY    62  53  72 SE5       30.03F
BROOKINGS      MOCLDY    61  54  77 E3        30.06R
SISSETON         N/A     51  49  92 CALM      30.02S
$$

SDZ017-020-022-023-036>040-048>070-051100-
SOUTHEAST SOUTH DAKOTA

CITY           SKY/WX    TMP DP  RH WIND       PRES   REMARKS
SIOUX FALLS    CLOUDY    61  57  87 E5        30.03R
HURON          CLOUDY   N/A N/A N/A SE7       30.00S
CHAMBERLAIN    MOCLDY    63  62  98 SE7       30.00S
MITCHELL       CLOUDY    63  61  93 SE5       30.01R
YANKTON        MOCLDY    64  63  94 E5        30.00S
$$

ABBREVIATIONS USED IN REMARKS
   TC - TEMPERATURE IN CELSIUS
  WCI - WIND CHILL INDEX
   HX - HEAT INDEX
  VSB - VISIBILITY



USA.gov is the U.S. government's official web portal to all federal, state and local government web resources and services.